SCP
0 0 0 0 0 0 0 0 0 0 -0 -0 0 -0 -0 -0 -0 0 0 0 0 0 0 0 0 0 0 0 0 0 0 0 0 0 0 0 0 0 0 0 0 0 0 0 0 0 0 0 0 0 0 0 0 0
0 -0 -0 0 0 0 0 0 0 0 0 0 0 -0 -0 -0 -0 -0 0 0 0 0 0 0 0 0 0 0 0 0 0 0 0 0 0 0 0 0 0 0 0 0 0 0 0 0 0 0 0 0 0 0 0 0
0 0 0 0 0 0 0 0 0 0 0 0 0 -0 -0 -0 -0 0 0 0 0 0 0 0 0 0 0 0 0 0 0 0 0 0 0 0 0 0 0 0 0 0 0 0 0 0 0 0 0 0 0 0 0 0
0 0 0 0 0 0 0 0 0 0 0 0 0 0 0 -0 -0 -0 0 0 0 0 0 0 0 0 0 0 0 0 0 0 0 0 0 0 0 0 0 0 0 0 0 0 0 0 0 0 0 0 0 0 0 0
0 0 0 0 0 0 0 0 0 0 0 0 0 0 0 0 0 0 -0 0 0 0 0 0 0 0 0 0 0 0 0 0 0 0 0 0 0 0 0 0 0 0 0 0 0 0 0 0 0 0 0 0 0 0
0 0 0 0 0 0 0 0 0 0 0 0 0 0 0 0 0 0 0 0 0 0 0 0 0 0 0 0 0 0 0 0 0 0 0 0 0 0 0 0 0 0 0 0 0 -0 -0 0 0 0 0 0 0 0
0 0 0 0 0 0 0 0 0 0 0 0 0 0 0 0 0 0 0 0 0 0 0 0 0 0 0 -0 0 0 0 0 0 0 0 0 0 0 0 0 0 0 0 0 0 -0 -0 0 0 0 0 0 0 0
0 0 0 0 0 0 0 0 0 0 0 0 0 0 0 0 0 -0 0 0 -0 0 0 0 0 0 0 0 0 0 0 0 0 0 0 0 0 0 0 0 0 0 -0 0 0 0 0 0 -0 0 0 0 0 0
0 0 0 0 0 0 0 0 0 0 0 0 0 0 0 0 0 0 0 0 0 0 0 0 0 0 0 0 0 0 0 0 0 0 0 0 0 0 0 0 0 0 0 0 0 0 0 0 0 0 0 0 0 0
0 0 0 0 0 0 0 0 0 0 0 0 0 0 0 0 0 0 0 0 0 0 0 0 0 0 0 0 0 0 0 0 0 0 0 0 0 0 0 0 0 0 0 0 0 0 0 0 0 0 0 0 -0 0
0 0 0 0 0 0 0 0 0 0 0 0 0 0 0 0 0 0 0 0 0 0 0 0 0 0 0 0 0 0 0 0 0 0 0 0 0 0 0 0 0 0 0 0 0 0 0 0 0 0 0 -0 -0 -0
0 0 0 0 0 0 0 0 0 0 0 0 0 0 0 0 0 0 0 0 0 0 0 0 0 0 0 0 0 0 0 0 0 0 0 0 0 0 0 0 0 0 0 0 0 0 0 0 0 0 0 -0 -0 -0
0 0 0 0 0 0 0 0 0 0 0 0 0 0 0 0 0 0 0 0 0 0 0 0 0 0 0 0 0 0 0 0 0 0 0 0 0 0 -0 0 0 0 0 0 0 0 0 0 0 0 0 0 -0 0
0 0 0 0 0 0 0 0 0 0 0 0 0 0 0 0 0 0 0 0 0 0 0 0 0 0 0 0 0 0 0 0 0 0 0 -0 -0 -0 0 0 0 -0 0 0 0 0 0 0 0 0 0 0 0 0
0 0 0 0 0 0 0 0 0 0 0 0 0 0 0 0 0 0 0 0 0 0 0 0 0 0 0 0 0 0 0 0 0 0 -0 -0 0 0 -0 -0 -0 -0 0 0 0 0 0 0 0 0 0 0 0 0
0 0 0 0 0 0 0 0 0 0 0 0 0 0 0 0 0 0 0 0 0 0 0 0 0 0 0 0 0 0 0 0 0 -0 -0 0 -0 -0 -0 -0 -0 0 0 0 0 0 0 -0 -0 -0 0 0 0 0
0 0 0 0 0 0 0 0 0 0 0 0 0 0 0 0 0 0 0 0 0 0 0 0 0 0 0 0 0 0 0 -0 -0 -0 0 0 -0 -0 0 -0 0 0 0 0 0 0 -0 -0 0 -0 -0 -0 0 -0
0 0 0 0 0 0 0 0 0 0 0 0 0 0 0 0 0 0 0 0 0 0 0 0 0 0 0 0 0 0 0 -0 0 0 -0 -0 0 0 0 0 0 0 0 0 0 0 -0 -0 -0 -0 -0 -0 -0 -0
0 0 0 0 0 0 0 0 0 0 0 0 0 0 0 0 0 0 0 0 0 0 0 0 0 0 0 0 0 0 0 0 0 -0 -0 0 0 0 0 -0 0 0 0 0 0 0 -0 0 0 0 0 0 0 -0
0 0 0 0 0 0 0 0 0 0 0 0 0 0 0 0 0 0 0 0 0 0 0 0 0 0 0 0 0 0 0 0 -0 -0 -0 -0 -0 -0 -0 0 0 0 0 0 0 0 0 0 -0 0 0 0 0 -0
0 0 0 0 0 0 0 0 0 0 0 0 0 0 0 0 0 0 0 0 0 0 0 0 0 0 0 0 0 -0 -0 -0 0 -0 -0 0 0 0 0 0 0 0 -0 -0 0 0 0 0 -0 -0 0 0 0 -0
0 0 0 0 0 0 0 0 0 0 0 0 0 0 0 0 0 0 0 0 0 -0 0 0 0 0 0 0 0 0 0 0 -0 -0 0 -0 -0 0 0 0 0 0 -0 -0 -0 0 0 0 0 -0 -0 0 -0 -0
0 0 0 0 0 0 0 0 0 0 0 0 0 0 0 0 0 0 0 0 0 0 0 0 0 0 0 -0 0 0 0 0 -0 -0 -0 -0 -0 0 0 0 0 -0 -0 -0 -0 0 0 0 0 0 0 0 0 -0
0 0 0 0 0 0 0 0 0 0 0 0 0 0 0 0 0 0 0 0 0 0 0 0 0 0 0 -0 0 -0 -0 -0 -0 -0 -0 -0 0 -0 -0 -0 0 -0 -0 0 0 0 0 0 0 0 0 -0 -0 -0
0 0 0 0 0 0 0 0 0 0 0 0 0 0 0 0 0 0 0 0 0 0 0 0 -0 0 0 0 0 0 0 0 0 0 0 0 -0 0 -0 0 0 0 0 0 0 0 0 0 0 -0 -0 -0 -0 -0
0 0 0 0 0 0 0 0 0 0 0 0 0 0 0 0 0 0 0 0 0 0 0 0 0 0 0 0 0 0 0 0 0 -0 0 0 -0 -0 0 -0 0 0 0 -0 0 0 0 0 0 0 -0 -0 0 -0
0 0 0 0 0 0 0 0 0 0 0 0 0 0 0 0 0 0 0 0 0 0 0 0 0 0 -0 0 0 0 0 0 -0 -0 -0 -0 0 -0 -0 -0 -0 -0 -0 -0 -0 -0 -0 0 0 0 0 -0 0 0
0 0 0 0 0 0 0 0 0 0 0 0 0 0 0 0 0 0 0 0 0 0 0 0 0 0 -0 0 -0 -0 -0 0 0 0 -0 -0 0 -0 -0 -0 -0 -0 -0 -0 -0 0 0 0 0 0 0 0 -0 -0
0 0 0 0 0 0 0 0 0 0 0 0 0 0 0 0 0 0 0 0 0 0 0 0 0 0 0 0 0 0 0 -0 0 0 -0 -0 -0 -0 -0 0 0 0 -0 -0 -0 -0 -0 -0 -0 -0 0 0 0 0
0 0 0 0 0 0 0 0 0 0 0 0 0 0 0 0 0 -0 -0 0 0 0 0 0 0 -0 0 0 0 0 0 0 0 0 0 -0 0 0 0 -0 -0 -0 0 0 0 0 -0 -0 -0 0 0 0 0 0
0 0 0 0 0 0 0 -0 -0 0 0 0 0 0 0 0 0 -0 -0 0 0 0 0 0 0 0 0 0 0 0 0 -0 -0 0 -0 -0 -0 0 0 0 -0 -0 0 0 0 0 0 0 0 0 0 0 0 0
0 0 0 0 0 0 0 0 0 0 0 0 0 0 0 0 0 0 0 0 0 0 0 0 0 0 0 0 0 0 -0 -0 0 0 -0 -0 -0 0 0 -0 -0 0 0 0 0 0 0 0 0 0 0 0 0 0
0 0 0 0 0 0 0 0 0 0 0 0 0 0 0 0 0 0 0 0 0 0 0 0 0 0 0 0 0 0 0 0 0 0 0 -0 -0 -0 -0 -0 0 0 -0 0 0 0 0 0 0 0 0 0 0 -0
Wind_Speed_500mb
30 29 30 31 30 27 26 26 27 29 32 28 20 20 23 29 29 16 13 29 17 13 15 9 9 13 14 11 13 22 14 10 13 12 14 12 14 12 12 16 19 26 23 24 25 27 22 22 34 25 25 34 37 31
38 39 40 36 32 27 25 25 25 26 26 23 19 19 21 25 26 15 16 25 18 8 12 12 8 8 5 7 14 18 16 12 14 10 15 10 19 18 24 22 10 14 17 13 14 20 35 36 29 40 46 38 39 43
40 38 36 31 31 27 24 23 24 23 23 20 17 16 18 23 26 23 15 28 25 16 19 10 12 5 1 5 7 11 12 14 7 12 16 11 17 12 18 17 24 17 6 12 23 28 36 48 43 42 44 45 40 42
40 36 33 32 28 25 24 23 23 22 21 16 15 15 16 20 24 18 14 18 23 11 11 16 2 2 4 6 7 10 17 15 18 18 23 15 16 21 19 23 20 14 26 24 27 29 45 35 41 47 56 59 52 57
39 39 35 32 29 24 24 22 22 22 19 13 14 15 16 21 23 21 6 7 20 14 14 12 7 1 4 4 7 9 11 15 19 21 16 17 28 15 24 24 10 20 13 11 14 38 40 57 63 66 68 68 63 59
48 41 38 32 29 25 25 23 21 22 18 14 14 14 16 20 19 18 7 2 11 18 9 7 11 2 5 7 9 8 10 13 17 19 23 19 21 17 13 13 11 6 15 22 37 51 60 62 63 62 62 61 63 64
50 48 41 36 31 27 25 23 21 20 18 15 14 13 14 16 15 6 3 10 29 8 8 10 9 11 6 8 13 12 13 11 17 26 13 23 23 13 11 17 13 24 38 48 53 52 59 58 57 64 60 62 61 65
45 48 46 41 35 29 26 23 21 19 18 15 13 13 15 15 5 6 6 18 24 4 8 8 5 10 5 14 6 4 13 21 12 16 20 10 13 7 8 2 17 37 49 47 40 50 63 67 67 68 64 59 59 61
38 46 48 41 36 31 26 23 21 18 13 12 10 11 11 5 3 6 16 31 8 8 13 7 10 5 2 20 11 10 8 11 1 13 11 9 6 9 13 12 22 36 32 52 63 65 71 67 67 66 68 58 62 59
38 38 40 44 38 32 27 23 19 14 8 5 2 3 4 6 13 21 6 4 7 10 10 14 3 6 4 16 6 12 3 5 7 2 6 9 20 37 25 25 31 40 48 54 56 61 62 62 62 65 57 62 67 62
37 37 37 40 40 32 28 22 16 8 5 6 3 2 8 18 8 7 7 9 14 9 14 12 11 12 8 12 11 4 4 5 5 1 5 6 5 6 16 31 42 49 54 61 51 60 67 62 70 68 70 65 61 57
35 36 39 39 41 33 29 23 16 18 12 11 4 6 8 7 10 7 8 9 8 5 11 3 2 10 7 8 6 4 4 5 4 3 6 6 5 12 18 35 45 54 53 55 53 61 65 51 54 56 62 60 56 43
32 35 41 43 37 35 30 24 18 23 13 4 4 6 8 7 3 10 12 10 8 13 8 9 9 3 7 0 5 3 7 8 2 5 6 5 18 29 36 43 54 59 58 57 59 57 52 54 52 55 53 47 42 36
29 38 41 44 36 37 30 23 17 25 14 7 8 5 9 11 11 12 5 7 7 8 11 7 9 13 8 6 6 6 3 7 5 5 7 3 21 35 39 50 58 60 57 66 67 55 53 53 57 46 36 38 31 29
33 40 41 37 40 37 32 27 23 29 5 9 10 7 16 25 11 6 8 7 7 2 5 10 10 6 5 1 5 4 6 4 6 8 7 24 27 36 48 56 57 62 61 63 53 57 57 58 50 48 37 32 24 22
37 35 40 39 43 40 35 29 34 20 7 10 13 15 20 21 12 14 14 5 8 4 0 5 3 5 5 4 5 6 6 6 5 11 40 30 34 46 53 58 62 58 50 49 49 57 63 59 51 44 40 28 24 26
38 30 36 41 44 40 37 33 28 13 11 9 16 25 20 12 2 9 14 10 3 11 2 3 4 11 4 6 10 7 8 14 26 30 30 34 42 51 53 61 54 48 53 46 60 61 64 75 66 52 45 37 32 23
27 39 36 50 51 46 41 20 15 11 13 20 18 10 8 8 8 8 9 7 7 12 14 8 15 8 7 13 13 9 27 21 20 24 34 39 45 47 45 46 45 44 52 52 51 44 56 85 75 51 38 31 25 19
34 35 41 57 56 34 17 16 12 7 18 23 23 12 8 13 16 18 16 13 13 15 14 13 9 11 12 19 19 20 27 29 34 37 36 37 39 43 44 55 37 43 41 45 35 41 56 67 67 52 32 22 19 19
32 27 49 58 59 12 12 9 16 10 9 12 21 22 21 21 25 27 24 21 22 22 15 10 17 28 28 26 28 30 32 33 34 35 35 44 41 45 50 41 40 42 37 45 31 41 55 60 80 58 40 33 32 24
37 39 53 59 36 8 10 14 15 12 13 13 9 11 15 22 31 25 23 21 23 28 23 26 31 31 29 25 25 28 26 23 26 32 38 40 38 42 40 30 32 30 38 43 27 29 46 42 51 77 58 44 34 31
33 52 54 29 6 8 5 8 5 8 9 9 10 19 20 22 25 27 24 26 27 34 26 24 23 24 19 16 16 16 21 23 24 24 25 30 33 34 29 32 40 25 45 32 26 29 42 39 50 58 81 74 58 59
56 49 20 9 5 7 7 11 9 10 6 8 12 12 20 23 7 9 12 22 19 7 8 4 5 5 16 22 22 21 16 16 17 21 22 27 25 28 25 31 31 36 40 32 32 31 35 42 39 43 55 66 81 95
39 10 7 10 9 9 9 11 9 7 8 11 7 11 10 8 5 3 14 10 7 5 11 9 12 14 11 10 5 2 7 11 14 15 20 22 28 26 28 28 32 32 30 26 29 32 38 44 44 44 42 48 59 63
13 12 11 9 12 13 13 14 13 13 11 12 8 6 1 8 5 6 7 5 12 20 4 6 13 5 12 2 5 6 11 17 18 17 16 23 28 24 22 35 35 36 28 31 35 37 38 37 40 38 40 44 48 54
4 10 15 17 16 12 11 11 13 14 8 9 8 5 3 2 4 7 5 20 16 11 13 11 8 11 7 2 5 11 13 16 13 10 12 15 23 22 24 27 31 37 38 38 37 36 37 39 41 44 49 53 55 57
5 7 12 13 9 10 8 9 11 10 7 8 6 10 4 6 9 7 17 15 11 11 9 14 10 9 6 3 9 7 9 13 12 0 4 15 14 21 22 24 29 26 25 33 32 30 34 37 39 40 42 43 44 46
9 8 15 19 9 14 5 11 9 8 6 8 12 9 5 5 2 5 15 12 11 9 7 12 12 9 6 4 8 9 5 5 7 10 4 10 14 21 24 23 33 30 32 22 29 30 32 33 35 37 38 39 39 39
8 11 14 20 10 4 7 9 11 15 14 13 9 2 4 6 9 9 8 11 11 9 8 8 6 4 2 2 4 10 2 8 20 13 11 16 21 27 26 29 34 37 40 39 38 34 32 31 30 31 32 34 34 32
10 15 10 13 12 10 14 22 13 14 16 15 15 8 7 7 7 10 10 13 12 14 9 5 5 7 8 1 4 1 10 22 28 30 6 19 19 21 20 21 22 22 20 20 19 17 16 19 23 34 39 40 39 34
9 21 12 13 21 21 17 16 16 12 12 17 19 19 16 14 13 15 16 14 15 15 12 12 8 6 6 3 6 6 18 40 37 11 11 3 16 17 18 19 18 18 22 23 20 23 22 23 22 24 23 23 25 28
12 13 6 2 4 4 3 3 7 13 16 18 19 20 21 22 18 8 7 11 12 15 15 12 6 4 4 3 8 9 35 49 34 3 8 15 21 17 15 14 14 15 17 22 23 22 21 22 23 22 19 18 22 20
12 10 8 3 3 5 6 6 12 9 17 16 18 18 13 11 8 10 9 6 6 0 4 5 6 8 10 10 14 32 54 51 27 10 18 17 16 10 5 14 15 19 17 14 20 19 19 19 19 19 19 18 19 18
Wind_Direction_500mb
275 281 294 304 312 313 319 324 328 337 345 353 359 2 7 10 17 42 37 1 14 315 28 13 6 350 340 322 307 28 285 192 265 278 280 300 321 343 329 313 303 285 278 285 297 294 287 23 351 335 347 334 329 317
273 282 286 288 297 301 308 316 322 330 339 350 358 359 5 11 15 29 18 348 344 294 329 321 286 279 266 341 334 325 333 298 358 320 339 334 320 315 321 297 309 271 279 311 303 301 321 330 343 329 324 324 325 320
265 274 289 282 281 287 297 306 315 321 330 339 349 355 360 8 14 24 28 360 354 276 277 225 148 52 1 264 288 296 9 2 316 8 310 297 299 297 278 283 311 310 61 276 306 295 316 314 320 318 328 312 308 299
258 262 280 283 276 276 284 295 305 315 319 325 334 342 349 358 1 3 41 347 3 309 276 128 356 287 258 263 284 277 290 286 284 285 283 286 290 287 292 299 295 351 329 346 296 297 334 306 315 313 311 308 307 293
253 254 263 279 276 270 276 284 296 304 307 306 322 335 345 350 350 345 53 340 10 9 324 321 285 165 19 223 298 295 286 279 278 274 265 272 289 326 305 295 332 358 6 326 309 318 304 296 301 298 297 293 287 288
243 246 253 266 269 264 268 276 287 301 295 283 309 320 337 351 1 43 168 236 325 355 294 273 126 184 240 263 278 270 279 272 264 275 285 293 354 347 286 300 131 2 314 308 307 304 300 296 298 297 295 297 291 280
247 239 244 254 257 258 259 266 276 292 290 284 288 308 327 337 338 293 299 265 326 330 261 270 188 149 213 252 230 236 213 259 277 289 293 291 300 336 291 283 343 323 323 316 308 305 303 302 295 297 296 292 289 282
245 235 239 254 244 247 251 257 268 283 289 283 292 300 317 323 328 349 233 314 330 245 256 273 228 155 181 298 234 254 287 294 253 277 282 299 286 283 270 229 325 322 321 317 309 302 296 293 294 289 289 289 292 281
245 238 239 238 231 237 242 249 258 275 283 283 300 315 319 31 291 246 286 306 238 229 301 246 301 95 130 281 268 34 309 292 323 255 286 311 244 231 246 245 281 299 298 293 308 307 301 295 291 295 288 285 290 286
241 237 232 226 224 228 231 239 250 269 264 279 336 332 260 217 272 290 295 181 210 206 242 256 122 274 345 352 1 299 80 325 288 241 271 243 247 249 223 243 275 300 303 302 300 300 301 298 292 298 293 292 296 280
238 231 225 216 214 220 220 226 239 218 154 96 247 302 291 297 291 232 258 227 183 213 209 253 40 309 31 332 336 20 11 300 283 209 271 263 274 293 237 272 283 299 311 308 300 306 302 302 293 293 297 295 295 287
233 224 215 210 208 211 211 214 216 179 167 192 256 263 285 252 238 250 225 194 236 183 177 26 113 342 2 1 328 322 278 232 290 348 249 272 59 345 316 319 318 320 320 310 302 310 315 310 307 298 297 300 296 290
224 217 205 202 207 201 204 205 208 196 180 167 255 235 219 224 359 226 195 206 177 158 126 189 172 281 165 145 281 269 242 244 153 252 279 347 349 333 331 326 323 322 322 324 325 321 311 310 307 310 306 299 294 287
222 201 198 197 203 193 194 195 198 173 156 221 212 301 227 201 234 219 81 92 99 153 164 246 173 211 166 185 193 247 329 275 266 262 251 14 324 328 332 329 325 324 326 328 321 325 322 320 319 315 303 305 293 284
207 189 192 202 193 187 185 185 181 169 190 229 221 233 222 254 295 345 73 136 178 238 258 280 269 211 105 312 235 318 255 238 232 266 335 307 347 341 333 330 324 323 322 328 333 330 325 327 326 325 317 307 289 278
184 191 199 195 190 179 178 182 173 163 232 228 231 243 267 252 262 183 203 218 142 207 287 23 300 293 207 179 265 246 280 261 7 320 303 340 343 335 329 325 326 330 328 328 334 335 333 339 335 326 324 321 294 292
178 198 195 183 173 174 177 174 172 197 235 230 229 241 251 295 298 356 83 97 234 270 117 302 241 223 324 216 215 214 267 292 302 313 328 336 336 326 324 328 332 338 343 343 341 350 356 342 329 326 323 325 313 313
182 194 189 177 168 173 176 169 178 209 242 235 253 255 269 307 265 275 306 237 228 253 244 207 249 263 219 292 300 212 252 304 336 329 327 324 318 321 328 330 335 336 335 341 348 360 355 357 359 348 327 325 326 345
177 189 192 175 172 160 160 186 189 227 240 253 238 242 251 277 275 277 269 248 244 262 279 274 248 255 249 267 298 318 321 337 342 333 321 321 332 336 334 336 339 336 345 354 2 6 8 11 6 16 20 18 19 34
183 190 184 174 173 148 164 177 183 230 248 246 231 236 240 239 249 253 240 232 229 227 223 237 263 279 296 321 337 332 332 328 321 313 322 333 329 333 332 342 340 342 345 359 10 4 11 20 20 27 38 50 50 43
181 177 175 178 172 145 166 187 199 208 257 268 257 230 242 243 240 238 239 232 226 236 240 245 256 268 286 301 311 307 303 302 307 314 321 319 322 326 336 347 349 346 6 3 10 15 22 26 28 37 47 54 58 74
155 175 173 162 122 145 169 236 251 181 220 230 234 221 253 243 235 229 230 230 234 244 246 266 262 272 302 344 340 318 310 307 302 315 331 334 342 339 348 346 336 13 9 9 14 26 32 32 39 45 51 54 59 68
161 165 145 107 141 176 201 213 219 201 221 206 220 226 227 239 219 190 239 247 254 251 301 39 52 307 294 296 301 290 283 286 303 338 350 347 6 356 342 349 33 21 10 24 33 34 38 48 48 51 50 59 60 66
148 102 112 144 170 199 181 186 213 223 225 219 224 232 266 163 206 214 270 245 189 251 249 282 277 262 287 255 259 269 338 334 350 357 357 5 355 351 354 25 29 15 22 40 46 50 60 57 53 56 61 57 60 63
135 165 176 193 200 195 183 174 194 212 218 210 215 249 271 200 240 236 254 192 195 217 237 244 237 187 184 277 338 352 344 358 5 6 3 11 5 11 25 33 40 33 45 59 59 57 54 59 63 65 63 66 69 67
159 166 179 190 172 190 186 166 189 208 197 172 204 231 185 223 245 243 189 186 179 180 179 181 170 139 115 353 336 348 350 356 351 8 42 32 14 14 39 48 49 61 67 69 69 70 65 69 71 71 69 66 65 68
214 171 187 199 211 195 182 187 187 183 184 193 199 168 183 226 237 161 161 164 162 161 188 199 202 151 160 13 356 309 339 350 354 3 25 3 54 47 46 64 63 77 66 71 71 73 78 75 74 72 72 70 68 68
232 238 180 180 218 221 185 193 187 186 198 224 153 183 223 300 70 135 147 161 169 161 190 184 209 237 216 295 315 317 310 24 34 117 46 62 87 82 74 81 73 72 76 89 75 78 81 82 82 80 78 76 75 72
244 204 184 183 141 255 232 197 210 197 198 209 212 233 228 15 106 127 161 191 198 200 204 168 227 221 175 303 337 4 120 58 138 120 78 97 92 88 81 86 86 85 86 88 93 94 94 92 90 89 86 85 81 74
204 188 166 186 186 220 218 205 217 219 226 207 201 203 213 221 196 189 196 212 205 213 214 216 220 227 227 337 38 59 97 134 138 125 8 97 103 104 105 104 100 92 93 92 96 98 89 82 74 74 71 79 83 76
193 198 198 203 225 221 212 202 195 206 227 221 218 209 224 226 218 214 218 229 222 218 231 244 235 244 131 138 202 183 143 148 140 172 347 351 122 112 104 100 93 88 87 82 74 73 73 71 69 71 71 67 57 66
192 208 216 212 273 254 215 183 241 222 222 228 241 235 226 226 224 197 220 201 208 223 230 238 260 296 15 238 250 227 163 150 160 328 16 121 128 124 115 110 106 100 97 90 80 69 78 77 73 74 86 86 80 95
184 189 180 215 249 224 229 221 213 225 221 217 227 232 249 253 199 161 158 206 234 243 158 175 249 257 242 232 186 161 158 160 165 88 87 104 137 134 94 119 99 92 87 89 80 88 82 76 70 71 71 79 90 79
Wind_Speed_850mb
30 29 30 31 30 27 26 26 27 29 32 28 20 20 23 29 29 16 13 29 17 13 15 9 9 13 14 11 13 22 14 10 13 12 14 12 14 12 12 16 19 26 23 24 25 27 22 22 34 25 25 34 37 31
38 39 40 36 32 27 25 25 25 26 26 23 19 19 21 25 26 15 16 25 18 8 12 12 8 8 5 7 14 18 16 12 14 10 15 10 19 18 24 22 10 14 17 13 14 20 35 36 29 40 46 38 39 43
40 38 36 31 31 27 24 23 24 23 23 20 17 16 18 23 26 23 15 28 25 16 19 10 12 5 1 5 7 11 12 14 7 12 16 11 17 12 18 17 24 17 6 12 23 28 36 48 43 42 44 45 40 42
40 36 33 32 28 25 24 23 23 22 21 16 15 15 16 20 24 18 14 18 23 11 11 16 2 2 4 6 7 10 17 15 18 18 23 15 16 21 19 23 20 14 26 24 27 29 45 35 41 47 56 59 52 57
39 39 35 32 29 24 24 22 22 22 19 13 14 15 16 21 23 21 6 7 20 14 14 12 7 1 4 4 7 9 11 15 19 21 16 17 28 15 24 24 10 20 13 11 14 38 40 57 63 66 68 68 63 59
48 41 38 32 29 25 25 23 21 22 18 14 14 14 16 20 19 18 7 2 11 18 9 7 11 2 5 7 9 8 10 13 17 19 23 19 21 17 13 13 11 6 15 22 37 51 60 62 63 62 62 61 63 64
50 48 41 36 31 27 25 23 21 20 18 15 14 13 14 16 15 6 3 10 29 8 8 10 9 11 6 8 13 12 13 11 17 26 13 23 23 13 11 17 13 24 38 48 53 52 59 58 57 64 60 62 61 65
45 48 46 41 35 29 26 23 21 19 18 15 13 13 15 15 5 6 6 18 24 4 8 8 5 10 5 14 6 4 13 21 12 16 20 10 13 7 8 2 17 37 49 47 40 50 63 67 67 68 64 59 59 61
38 46 48 41 36 31 26 23 21 18 13 12 10 11 11 5 3 6 16 31 8 8 13 7 10 5 2 20 11 10 8 11 1 13 11 9 6 9 13 12 22 36 32 52 63 65 71 67 67 66 68 58 62 59
38 38 40 44 38 32 27 23 19 14 8 5 2 3 4 6 13 21 6 4 7 10 10 14 3 6 4 16 6 12 3 5 7 2 6 9 20 37 25 25 31 40 48 54 56 61 62 62 62 65 57 62 67 62
37 37 37 40 40 32 28 22 16 8 5 6 3 2 8 18 8 7 7 9 14 9 14 12 11 12 8 12 11 4 4 5 5 1 5 6 5 6 16 31 42 49 54 61 51 60 67 62 70 68 70 65 61 57
35 36 39 39 41 33 29 23 16 18 12 11 4 6 8 7 10 7 8 9 8 5 11 3 2 10 7 8 6 4 4 5 4 3 6 6 5 12 18 35 45 54 53 55 53 61 65 51 54 56 62 60 56 43
32 35 41 43 37 35 30 24 18 23 13 4 4 6 8 7 3 10 12 10 8 13 8 9 9 3 7 0 5 3 7 8 2 5 6 5 18 29 36 43 54 59 58 57 59 57 52 54 52 55 53 47 42 36
29 38 41 44 36 37 30 23 17 25 14 7 8 5 9 11 11 12 5 7 7 8 11 7 9 13 8 6 6 6 3 7 5 5 7 3 21 35 39 50 58 60 57 66 67 55 53 53 57 46 36 38 31 29
33 40 41 37 40 37 32 27 23 29 5 9 10 7 16 25 11 6 8 7 7 2 5 10 10 6 5 1 5 4 6 4 6 8 7 24 27 36 48 56 57 62 61 63 53 57 57 58 50 48 37 32 24 22
37 35 40 39 43 40 35 29 34 20 7 10 13 15 20 21 12 14 14 5 8 4 0 5 3 5 5 4 5 6 6 6 5 11 40 30 34 46 53 58 62 58 50 49 49 57 63 59 51 44 40 28 24 26
38 30 36 41 44 40 37 33 28 13 11 9 16 25 20 12 2 9 14 10 3 11 2 3 4 11 4 6 10 7 8 14 26 30 30 34 42 51 53 61 54 48 53 46 60 61 64 75 66 52 45 37 32 23
27 39 36 50 51 46 41 20 15 11 13 20 18 10 8 8 8 8 9 7 7 12 14 8 15 8 7 13 13 9 27 21 20 24 34 39 45 47 45 46 45 44 52 52 51 44 56 85 75 51 38 31 25 19
34 35 41 57 56 34 17 16 12 7 18 23 23 12 8 13 16 18 16 13 13 15 14 13 9 11 12 19 19 20 27 29 34 37 36 37 39 43 44 55 37 43 41 45 35 41 56 67 67 52 32 22 19 19
32 27 49 58 59 12 12 9 16 10 9 12 21 22 21 21 25 27 24 21 22 22 15 10 17 28 28 26 28 30 32 33 34 35 35 44 41 45 50 41 40 42 37 45 31 41 55 60 80 58 40 33 32 24
37 39 53 59 36 8 10 14 15 12 13 13 9 11 15 22 31 25 23 21 23 28 23 26 31 31 29 25 25 28 26 23 26 32 38 40 38 42 40 30 32 30 38 43 27 29 46 42 51 77 58 44 34 31
33 52 54 29 6 8 5 8 5 8 9 9 10 19 20 22 25 27 24 26 27 34 26 24 23 24 19 16 16 16 21 23 24 24 25 30 33 34 29 32 40 25 45 32 26 29 42 39 50 58 81 74 58 59
56 49 20 9 5 7 7 11 9 10 6 8 12 12 20 23 7 9 12 22 19 7 8 4 5 5 16 22 22 21 16 16 17 21 22 27 25 28 25 31 31 36 40 32 32 31 35 42 39 43 55 66 81 95
39 10 7 10 9 9 9 11 9 7 8 11 7 11 10 8 5 3 14 10 7 5 11 9 12 14 11 10 5 2 7 11 14 15 20 22 28 26 28 28 32 32 30 26 29 32 38 44 44 44 42 48 59 63
13 12 11 9 12 13 13 14 13 13 11 12 8 6 1 8 5 6 7 5 12 20 4 6 13 5 12 2 5 6 11 17 18 17 16 23 28 24 22 35 35 36 28 31 35 37 38 37 40 38 40 44 48 54
4 10 15 17 16 12 11 11 13 14 8 9 8 5 3 2 4 7 5 20 16 11 13 11 8 11 7 2 5 11 13 16 13 10 12 15 23 22 24 27 31 37 38 38 37 36 37 39 41 44 49 53 55 57
5 7 12 13 9 10 8 9 11 10 7 8 6 10 4 6 9 7 17 15 11 11 9 14 10 9 6 3 9 7 9 13 12 0 4 15 14 21 22 24 29 26 25 33 32 30 34 37 39 40 42 43 44 46
9 8 15 19 9 14 5 11 9 8 6 8 12 9 5 5 2 5 15 12 11 9 7 12 12 9 6 4 8 9 5 5 7 10 4 10 14 21 24 23 33 30 32 22 29 30 32 33 35 37 38 39 39 39
8 11 14 20 10 4 7 9 11 15 14 13 9 2 4 6 9 9 8 11 11 9 8 8 6 4 2 2 4 10 2 8 20 13 11 16 21 27 26 29 34 37 40 39 38 34 32 31 30 31 32 34 34 32
10 15 10 13 12 10 14 22 13 14 16 15 15 8 7 7 7 10 10 13 12 14 9 5 5 7 8 1 4 1 10 22 28 30 6 19 19 21 20 21 22 22 20 20 19 17 16 19 23 34 39 40 39 34
9 21 12 13 21 21 17 16 16 12 12 17 19 19 16 14 13 15 16 14 15 15 12 12 8 6 6 3 6 6 18 40 37 11 11 3 16 17 18 19 18 18 22 23 20 23 22 23 22 24 23 23 25 28
12 13 6 2 4 4 3 3 7 13 16 18 19 20 21 22 18 8 7 11 12 15 15 12 6 4 4 3 8 9 35 49 34 3 8 15 21 17 15 14 14 15 17 22 23 22 21 22 23 22 19 18 22 20
12 10 8 3 3 5 6 6 12 9 17 16 18 18 13 11 8 10 9 6 6 0 4 5 6 8 10 10 14 32 54 51 27 10 18 17 16 10 5 14 15 19 17 14 20 19 19 19 19 19 19 18 19 18
Wind_Direction_850mb
275 281 294 304 312 313 319 324 328 337 345 353 359 2 7 10 17 42 37 1 14 315 28 13 6 350 340 322 307 28 285 192 265 278 280 300 321 343 329 313 303 285 278 285 297 294 287 23 351 335 347 334 329 317
273 282 286 288 297 301 308 316 322 330 339 350 358 359 5 11 15 29 18 348 344 294 329 321 286 279 266 341 334 325 333 298 358 320 339 334 320 315 321 297 309 271 279 311 303 301 321 330 343 329 324 324 325 320
265 274 289 282 281 287 297 306 315 321 330 339 349 355 360 8 14 24 28 360 354 276 277 225 148 52 1 264 288 296 9 2 316 8 310 297 299 297 278 283 311 310 61 276 306 295 316 314 320 318 328 312 308 299
258 262 280 283 276 276 284 295 305 315 319 325 334 342 349 358 1 3 41 347 3 309 276 128 356 287 258 263 284 277 290 286 284 285 283 286 290 287 292 299 295 351 329 346 296 297 334 306 315 313 311 308 307 293
253 254 263 279 276 270 276 284 296 304 307 306 322 335 345 350 350 345 53 340 10 9 324 321 285 165 19 223 298 295 286 279 278 274 265 272 289 326 305 295 332 358 6 326 309 318 304 296 301 298 297 293 287 288
243 246 253 266 269 264 268 276 287 301 295 283 309 320 337 351 1 43 168 236 325 355 294 273 126 184 240 263 278 270 279 272 264 275 285 293 354 347 286 300 131 2 314 308 307 304 300 296 298 297 295 297 291 280
247 239 244 254 257 258 259 266 276 292 290 284 288 308 327 337 338 293 299 265 326 330 261 270 188 149 213 252 230 236 213 259 277 289 293 291 300 336 291 283 343 323 323 316 308 305 303 302 295 297 296 292 289 282
245 235 239 254 244 247 251 257 268 283 289 283 292 300 317 323 328 349 233 314 330 245 256 273 228 155 181 298 234 254 287 294 253 277 282 299 286 283 270 229 325 322 321 317 309 302 296 293 294 289 289 289 292 281
245 238 239 238 231 237 242 249 258 275 283 283 300 315 319 31 291 246 286 306 238 229 301 246 301 95 130 281 268 34 309 292 323 255 286 311 244 231 246 245 281 299 298 293 308 307 301 295 291 295 288 285 290 286
241 237 232 226 224 228 231 239 250 269 264 279 336 332 260 217 272 290 295 181 210 206 242 256 122 274 345 352 1 299 80 325 288 241 271 243 247 249 223 243 275 300 303 302 300 300 301 298 292 298 293 292 296 280
238 231 225 216 214 220 220 226 239 218 154 96 247 302 291 297 291 232 258 227 183 213 209 253 40 309 31 332 336 20 11 300 283 209 271 263 274 293 237 272 283 299 311 308 300 306 302 302 293 293 297 295 295 287
233 224 215 210 208 211 211 214 216 179 167 192 256 263 285 252 238 250 225 194 236 183 177 26 113 342 2 1 328 322 278 232 290 348 249 272 59 345 316 319 318 320 320 310 302 310 315 310 307 298 297 300 296 290
224 217 205 202 207 201 204 205 208 196 180 167 255 235 219 224 359 226 195 206 177 158 126 189 172 281 165 145 281 269 242 244 153 252 279 347 349 333 331 326 323 322 322 324 325 321 311 310 307 310 306 299 294 287
222 201 198 197 203 193 194 195 198 173 156 221 212 301 227 201 234 219 81 92 99 153 164 246 173 211 166 185 193 247 329 275 266 262 251 14 324 328 332 329 325 324 326 328 321 325 322 320 319 315 303 305 293 284
207 189 192 202 193 187 185 185 181 169 190 229 221 233 222 254 295 345 73 136 178 238 258 280 269 211 105 312 235 318 255 238 232 266 335 307 347 341 333 330 324 323 322 328 333 330 325 327 326 325 317 307 289 278
184 191 199 195 190 179 178 182 173 163 232 228 231 243 267 252 262 183 203 218 142 207 287 23 300 293 207 179 265 246 280 261 7 320 303 340 343 335 329 325 326 330 328 328 334 335 333 339 335 326 324 321 294 292
178 198 195 183 173 174 177 174 172 197 235 230 229 241 251 295 298 356 83 97 234 270 117 302 241 223 324 216 215 214 267 292 302 313 328 336 336 326 324 328 332 338 343 343 341 350 356 342 329 326 323 325 313 313
182 194 189 177 168 173 176 169 178 209 242 235 253 255 269 307 265 275 306 237 228 253 244 207 249 263 219 292 300 212 252 304 336 329 327 324 318 321 328 330 335 336 335 341 348 360 355 357 359 348 327 325 326 345
177 189 192 175 172 160 160 186 189 227 240 253 238 242 251 277 275 277 269 248 244 262 279 274 248 255 249 267 298 318 321 337 342 333 321 321 332 336 334 336 339 336 345 354 2 6 8 11 6 16 20 18 19 34
183 190 184 174 173 148 164 177 183 230 248 246 231 236 240 239 249 253 240 232 229 227 223 237 263 279 296 321 337 332 332 328 321 313 322 333 329 333 332 342 340 342 345 359 10 4 11 20 20 27 38 50 50 43
181 177 175 178 172 145 166 187 199 208 257 268 257 230 242 243 240 238 239 232 226 236 240 245 256 268 286 301 311 307 303 302 307 314 321 319 322 326 336 347 349 346 6 3 10 15 22 26 28 37 47 54 58 74
155 175 173 162 122 145 169 236 251 181 220 230 234 221 253 243 235 229 230 230 234 244 246 266 262 272 302 344 340 318 310 307 302 315 331 334 342 339 348 346 336 13 9 9 14 26 32 32 39 45 51 54 59 68
161 165 145 107 141 176 201 213 219 201 221 206 220 226 227 239 219 190 239 247 254 251 301 39 52 307 294 296 301 290 283 286 303 338 350 347 6 356 342 349 33 21 10 24 33 34 38 48 48 51 50 59 60 66
148 102 112 144 170 199 181 186 213 223 225 219 224 232 266 163 206 214 270 245 189 251 249 282 277 262 287 255 259 269 338 334 350 357 357 5 355 351 354 25 29 15 22 40 46 50 60 57 53 56 61 57 60 63
135 165 176 193 200 195 183 174 194 212 218 210 215 249 271 200 240 236 254 192 195 217 237 244 237 187 184 277 338 352 344 358 5 6 3 11 5 11 25 33 40 33 45 59 59 57 54 59 63 65 63 66 69 67
159 166 179 190 172 190 186 166 189 208 197 172 204 231 185 223 245 243 189 186 179 180 179 181 170 139 115 353 336 348 350 356 351 8 42 32 14 14 39 48 49 61 67 69 69 70 65 69 71 71 69 66 65 68
214 171 187 199 211 195 182 187 187 183 184 193 199 168 183 226 237 161 161 164 162 161 188 199 202 151 160 13 356 309 339 350 354 3 25 3 54 47 46 64 63 77 66 71 71 73 78 75 74 72 72 70 68 68
232 238 180 180 218 221 185 193 187 186 198 224 153 183 223 300 70 135 147 161 169 161 190 184 209 237 216 295 315 317 310 24 34 117 46 62 87 82 74 81 73 72 76 89 75 78 81 82 82 80 78 76 75 72
244 204 184 183 141 255 232 197 210 197 198 209 212 233 228 15 106 127 161 191 198 200 204 168 227 221 175 303 337 4 120 58 138 120 78 97 92 88 81 86 86 85 86 88 93 94 94 92 90 89 86 85 81 74
204 188 166 186 186 220 218 205 217 219 226 207 201 203 213 221 196 189 196 212 205 213 214 216 220 227 227 337 38 59 97 134 138 125 8 97 103 104 105 104 100 92 93 92 96 98 89 82 74 74 71 79 83 76
193 198 198 203 225 221 212 202 195 206 227 221 218 209 224 226 218 214 218 229 222 218 231 244 235 244 131 138 202 183 143 148 140 172 347 351 122 112 104 100 93 88 87 82 74 73 73 71 69 71 71 67 57 66
192 208 216 212 273 254 215 183 241 222 222 228 241 235 226 226 224 197 220 201 208 223 230 238 260 296 15 238 250 227 163 150 160 328 16 121 128 124 115 110 106 100 97 90 80 69 78 77 73 74 86 86 80 95
184 189 180 215 249 224 229 221 213 225 221 217 227 232 249 253 199 161 158 206 234 243 158 175 249 257 242 232 186 161 158 160 165 88 87 104 137 134 94 119 99 92 87 89 80 88 82 76 70 71 71 79 90 79